FW7690 Weather Reports


time (UTC)temp
C
wind
direction
speed
KPH
gust
KPH
rain 1hr
cm
rain 24hr
cm
rain mn
cm
humidity
%
barometer
mb
20260507205030 13 0 0.0 0.0 0.00 0.00 0.00 87 1013.1
20260507204549 13 0 0.0 0.0 0.00 0.00 0.00 87 1013.3
20260507204035 13 0 0.0 1.6 0.00 0.00 0.00 87 1013.3
20260507203533 13 0 0.0 1.6 0.00 0.00 0.00 87 1013.3
20260507203047 13 0 0.0 1.6 0.00 0.00 0.00 86 1013.1
20260507202533 13 0 0.0 0.0 0.00 0.00 0.00 85 1013.2
20260507202034 14 0 0.0 1.6 0.00 0.00 0.00 85 1013.3
20260507201549 14 0 0.0 1.6 0.00 0.00 0.00 85 1013.1
20260507201035 14 251 0.0 3.2 0.00 0.00 0.00 84 1013.1
20260507200533 14 0 0.0 3.2 0.00 0.00 0.00 84 1013.2
20260507200048 14 0 0.0 0.0 0.00 0.00 0.00 84 1013.1
20260507195534 15 0 0.0 0.0 0.00 0.00 0.00 83 1013.0
20260507195031 15 0 0.0 0.0 0.00 0.00 0.00 82 1013.0
20260507194613 15 0 0.0 0.0 0.00 0.00 0.00 82 1013.1
20260507194030 15 0 0.0 0.0 0.00 0.00 0.00 82 1013.1
20260507193530 15 0 0.0 0.0 0.00 0.00 0.00 82 1013.1
20260507193046 15 0 0.0 0.0 0.00 0.00 0.00 82 1013.2
20260507192533 15 0 0.0 0.0 0.00 0.00 0.00 83 1013.2
20260507192034 15 0 0.0 0.0 0.00 0.00 0.00 82 1013.1
20260507191547 16 0 0.0 0.0 0.00 0.00 0.00 81 1013.1
20260507191033 16 0 0.0 1.6 0.00 0.00 0.00 81 1013.2
20260507190534 16 0 0.0 3.2 0.00 0.00 0.00 80 1013.2
20260507190052 16 0 1.6 3.2 0.00 0.00 0.00 80 1013.2
20260507185534 16 323 1.6 4.8 0.00 0.00 0.00 80 1013.2
20260507185034 16 332 1.6 4.8 0.00 0.00 0.00 80 1013.0
20260507184550 16 325 3.2 4.8 0.00 0.00 0.00 80 1013.1
20260507184030 16 311 3.2 4.8 0.00 0.00 0.00 79 1013.1
20260507183530 16 321 3.2 4.8 0.00 0.00 0.00 78 1013.0
20260507183047 16 328 3.2 6.4 0.00 0.00 0.00 78 1013.1
20260507182533 17 321 3.2 6.4 0.00 0.00 0.00 78 1013.0
20260507182033 17 318 4.8 6.4 0.00 0.00 0.00 76 1013.0
20260507181558 17 321 1.6 4.8 0.00 0.00 0.00 75 1012.8
20260507181035 17 326 1.6 6.4 0.00 0.00 0.00 73 1013.0
20260507180534 17 321 3.2 6.4 0.00 0.00 0.00 73 1013.0
20260507180046 18 324 3.2 6.4 0.00 0.00 0.00 71 1013.1
20260507175533 18 331 3.2 11.3 0.00 0.00 0.00 71 1012.9
20260507175033 18 307 6.4 11.3 0.00 0.00 0.00 71 1012.8
20260507174556 18 322 8.0 11.3 0.00 0.00 0.00 69 1012.9
20260507174034 18 340 6.4 9.7 0.00 0.00 0.00 70 1012.9
20260507173532 18 314 4.8 9.7 0.00 0.00 0.00 70 1012.9
20260507173116 18 338 4.8 11.3 0.00 0.00 0.00 69 1013.0
20260507172533 18 329 6.4 12.9 0.00 0.00 0.00 71 1012.9
20260507172032 18 326 6.4 12.9 0.00 0.00 0.00 69 1012.8
20260507171549 18 320 6.4 11.3 0.00 0.00 0.00 70 1012.7
20260507171033 18 297 6.4 11.3 0.00 0.00 0.00 68 1012.8
20260507170533 18 321 8.0 11.3 0.00 0.00 0.00 69 1012.7
20260507170058 18 327 4.8 11.3 0.00 0.00 0.00 68 1012.8
20260507165532 18 324 6.4 11.3 0.00 0.00 0.00 67 1012.9
20260507165034 19 320 8.0 11.3 0.00 0.00 0.00 66 1012.9
20260507164550 19 320 8.0 11.3 0.00 0.00 0.00 63 1012.9
20260507164033 20 311 4.8 9.7 0.00 0.00 0.00 61 1012.9
20260507163533 20 323 4.8 9.7 0.00 0.00 0.00 62 1012.9
20260507163048 20 310 6.4 11.3 0.00 0.00 0.00 61 1013.0
20260507162532 20 318 8.0 12.9 0.00 0.00 0.00 62 1012.9
20260507162035 20 316 4.8 16.1 0.00 0.00 0.00 63 1012.9
20260507161600 20 331 6.4 16.1 0.00 0.00 0.00 62 1012.9
20260507161032 20 322 6.4 11.3 0.00 0.00 0.00 62 1012.9
20260507160532 20 306 6.4 12.9 0.00 0.00 0.00 61 1012.9
20260507160049 20 322 8.0 12.9 0.00 0.00 0.00 60 1012.8
20260507155534 20 20 4.8 12.9 0.00 0.00 0.00 57 1012.8
20260507155033 20 322 9.7 12.9 0.00 0.00 0.00 60 1012.7
20260507154545 20 319 8.0 12.9 0.00 0.00 0.00 63 1012.7
20260507154033 20 328 8.0 14.5 0.00 0.00 0.00 60 1012.8
20260507153533 20 325 6.4 14.5 0.00 0.00 0.00 58 1012.8
20260507153055 20 329 6.4 14.5 0.00 0.00 0.00 59 1012.9
20260507152537 20 319 6.4 12.9 0.00 0.00 0.00 61 1012.9
20260507152033 20 323 4.8 17.7 0.00 0.00 0.00 60 1012.8
20260507151548 20 315 8.0 17.7 0.00 0.00 0.00 61 1012.8
20260507151031 20 306 8.0 16.1 0.00 0.00 0.00 62 1012.8
20260507150533 20 311 4.8 16.1 0.00 0.00 0.00 60 1013.0
20260507150050 20 310 8.0 17.7 0.00 0.00 0.00 62 1013.0
20260507145530 20 313 3.2 17.7 0.00 0.00 0.00 60 1013.1
20260507145033 20 295 11.3 17.7 0.00 0.00 0.00 59 1013.1
20260507144551 20 282 11.3 17.7 0.00 0.00 0.00 62 1013.1
20260507144034 20 302 8.0 20.9 0.00 0.00 0.00 59 1013.2
20260507143534 20 309 9.7 20.9 0.00 0.00 0.00 57 1013.1
20260507143051 20 309 9.7 16.1 0.00 0.00 0.00 56 1013.2
20260507142534 20 275 9.7 16.1 0.00 0.00 0.00 54 1013.1
20260507142034 20 279 6.4 12.9 0.00 0.00 0.00 52 1013.3
20260507141624 20 217 6.4 16.1 0.00 0.00 0.00 49 1013.2
20260507141037 20 227 9.7 16.1 0.00 0.00 0.00 54 1013.3
20260507140533 20 283 6.4 16.1 0.00 0.00 0.00 52 1013.4
20260507140048 20 307 8.0 16.1 0.00 0.00 0.00 55 1013.3
20260507135531 20 291 9.7 17.7 0.00 0.33 0.00 52 1013.5
20260507135034 20 262 6.4 17.7 0.00 0.33 0.00 54 1013.3
20260507134546 20 263 11.3 17.7 0.00 0.33 0.00 56 1013.5
20260507134031 20 340 11.3 17.7 0.00 0.33 0.00 54 1013.6
20260507133535 20 304 9.7 16.1 0.00 0.33 0.00 55 1013.7
20260507133047 20 293 11.3 17.7 0.00 0.33 0.00 59 1013.6
20260507132535 20 252 9.7 17.7 0.00 0.33 0.00 52 1013.6
20260507132033 20 279 9.7 14.5 0.00 0.33 0.00 55 1013.5
20260507131548 20 324 8.0 17.7 0.00 0.33 0.00 60 1013.6
20260507131033 20 319 9.7 17.7 0.00 0.33 0.00 52 1013.5
20260507130535 20 290 6.4 14.5 0.00 0.33 0.00 57 1013.7
20260507130045 20 259 6.4 14.5 0.00 0.33 0.00 60 1013.7
20260507125535 20 269 6.4 16.1 0.00 0.33 0.00 54 1013.7
20260507125033 20 300 8.0 16.1 0.00 0.33 0.00 58 1013.7
20260507124547 20 307 6.4 16.1 0.00 0.33 0.00 58 1013.6
20260507124031 20 309 9.7 16.1 0.00 0.33 0.00 56 1013.7
20260507123531 20 214 3.2 14.5 0.00 0.33 0.00 55 1013.5
20260507123048 20 288 9.7 14.5 0.00 0.33 0.00 58 1013.7
20260507122530 20 298 3.2 14.5 0.00 0.33 0.00 58 1013.5
20260507122033 20 302 4.8 14.5 0.00 0.33 0.00 57 1013.6
20260507121545 20 275 8.0 16.1 0.00 0.33 0.00 60 1013.5
20260507121034 20 259 9.7 16.1 0.00 0.33 0.00 55 1013.6
20260507120535 20 237 4.8 9.7 0.00 0.33 0.00 59 1013.6
20260507120056 20 274 4.8 9.7 0.00 0.33 0.00 59 1013.6
20260507115533 20 300 4.8 11.3 0.00 0.36 0.00 53 1013.7
20260507115033 20 285 6.4 12.9 0.00 0.36 0.00 57 1013.6
20260507114543 20 305 6.4 16.1 0.00 0.36 0.00 57 1013.7
20260507114033 20 302 4.8 16.1 0.00 0.36 0.00 60 1013.6
20260507113535 21 293 8.0 12.9 0.00 0.36 0.00 64 1013.7
20260507113051 20 154 6.4 16.1 0.00 0.36 0.00 56 1013.8
20260507112533 20 162 9.7 16.1 0.00 0.36 0.00 60 1013.8
20260507112032 20 245 6.4 12.9 0.00 0.36 0.00 62 1013.8
20260507111547 20 255 6.4 12.9 0.00 0.36 0.00 61 1014.0
20260507111030 20 296 0.0 14.5 0.00 0.36 0.00 64 1013.9
20260507110531 20 320 4.8 14.5 0.00 0.36 0.00 60 1014.0
20260507110045 20 285 6.4 14.5 0.00 0.36 0.00 62 1014.0
20260507105532 20 321 6.4 14.5 0.00 0.36 0.00 63 1014.0
20260507105033 20 224 6.4 16.1 0.00 0.36 0.00 66 1013.9
20260507104548 20 294 8.0 16.1 0.00 0.36 0.00 64 1014.1
20260507104033 20 304 1.6 8.0 0.00 0.36 0.00 67 1014.1
20260507103532 19 0 1.6 8.0 0.00 0.36 0.00 66 1014.0
20260507103047 18 275 1.6 9.7 0.00 0.36 0.00 69 1014.2
20260507102534 18 304 4.8 12.9 0.00 0.36 0.00 69 1014.3
20260507102032 18 293 6.4 12.9 0.00 0.36 0.00 70 1014.4
20260507101544 19 316 1.6 9.7 0.00 0.36 0.00 70 1014.5
20260507101031 19 306 4.8 9.7 0.00 0.36 0.00 67 1014.5
20260507100536 19 307 3.2 9.7 0.00 0.36 0.00 71 1014.5
20260507100048 19 322 6.4 9.7 0.00 0.36 0.00 72 1014.3
20260507095531 20 298 3.2 9.7 0.00 0.36 0.00 72 1014.4
20260507095034 19 315 0.0 8.0 0.00 0.36 0.00 69 1014.3
20260507094553 19 211 0.0 8.0 0.00 0.36 0.00 73 1014.1
20260507094033 19 335 1.6 6.4 0.00 0.36 0.00 73 1014.2
20260507093533 19 267 4.8 6.4 0.00 0.36 0.00 69 1014.1
20260507093047 19 316 1.6 8.0 0.00 0.36 0.00 74 1014.2
20260507092531 19 0 1.6 8.0 0.00 0.36 0.00 71 1014.2
20260507092030 19 309 0.0 6.4 0.00 0.36 0.00 73 1014.1
20260507091547 18 311 0.0 3.2 0.00 0.36 0.00 74 1014.2
20260507091033 18 0 0.0 8.0 0.00 0.36 0.00 71 1014.1
20260507090533 18 0 3.2 8.0 0.00 0.36 0.00 72 1014.2
20260507090048 18 317 3.2 8.0 0.00 0.36 0.00 71 1014.2
20260507085533 18 309 0.0 6.4 0.00 0.36 0.00 73 1014.3
20260507085033 18 321 1.6 9.7 0.00 0.36 0.00 75 1014.2
20260507084548 18 0 3.2 9.7 0.00 0.36 0.00 74 1014.3
20260507084034 18 122 3.2 8.0 0.00 0.36 0.00 74 1014.3
20260507083533 18 0 3.2 8.0 0.00 0.36 0.00 74 1014.2
20260507083047 18 107 3.2 8.0 0.00 0.36 0.00 75 1014.3
20260507082534 17 118 1.6 6.4 0.00 0.36 0.00 75 1014.2
20260507082033 17 0 0.0 6.4 0.00 0.36 0.00 76 1014.3
20260507081547 17 150 1.6 8.0 0.00 0.36 0.00 77 1014.3
20260507081031 17 136 0.0 8.0 0.00 0.36 0.00 78 1014.3
20260507080535 17 75 1.6 8.0 0.00 0.36 0.00 77 1014.4
20260507080051 17 0 0.0 3.2 0.00 0.36 0.00 79 1014.4
20260507075533 17 0 0.0 6.4 0.00 0.36 0.00 80 1014.3
20260507075033 17 0 0.0 6.4 0.00 0.36 0.00 80 1014.3
20260507074549 17 77 1.6 6.4 0.00 0.36 0.00 80 1014.4
20260507074031 17 0 0.0 4.8 0.00 0.36 0.00 80 1014.3
20260507073533 17 117 0.0 4.8 0.00 0.36 0.00 80 1014.2
20260507073107 17 0 0.0 4.8 0.00 0.36 0.00 80 1014.2
20260507072533 17 153 0.0 3.2 0.00 0.36 0.00 81 1014.2
20260507072030 16 121 0.0 3.2 0.00 0.36 0.00 82 1014.1
20260507071547 16 90 0.0 3.2 0.00 0.36 0.00 84 1014.2
20260507071031 16 75 0.0 3.2 0.00 0.36 0.00 84 1014.0
20260507070535 16 0 0.0 1.6 0.00 0.36 0.00 85 1014.1
20260507070045 16 291 0.0 1.6 0.00 0.36 0.00 84 1014.1
20260507065536 16 0 0.0 1.6 0.00 0.36 0.00 84 1013.9
20260507065035 16 0 0.0 0.0 0.00 0.36 0.00 87 1014.0
20260507064559 15 0 0.0 0.0 0.00 0.36 0.00 87 1013.8
20260507064031 15 0 0.0 0.0 0.00 0.36 0.00 88 1014.1
20260507063531 15 0 0.0 1.6 0.00 0.36 0.00 89 1014.1
20260507063055 14 0 0.0 1.6 0.00 0.36 0.00 89 1013.9
20260507062533 14 342 0.0 4.8 0.00 0.36 0.00 89 1013.8
20260507062032 14 0 0.0 4.8 0.00 0.36 0.00 91 1013.8
20260507061541 14 80 0.0 4.8 0.00 0.36 0.00 91 1013.7
20260507061030 13 0 0.0 1.6 0.00 0.36 0.00 93 1013.6
20260507060532 13 0 0.0 3.2 0.00 0.36 0.00 94 1013.7
20260507060047 13 0 0.0 4.8 0.00 0.36 0.00 94 1013.6
20260507055533 13 70 0.0 4.8 0.00 0.56 0.00 95 1013.5
20260507055034 12 0 0.0 0.0 0.00 0.56 0.00 95 1013.6
20260507054545 12 0 0.0 0.0 0.00 0.56 0.00 95 1013.4
20260507054035 12 0 0.0 0.0 0.00 0.56 0.00 95 1013.2
20260507053534 12 0 0.0 0.0 0.00 0.56 0.00 96 1013.5
20260507053045 12 0 0.0 1.6 0.00 0.56 0.00 96 1013.3
20260507052532 11 0 0.0 1.6 0.00 0.56 0.00 95 1013.5
20260507052034 11 0 0.0 1.6 0.00 0.56 0.00 96 1013.2
20260507051545 11 0 0.0 4.8 0.00 0.56 0.00 96 1013.2
20260507051037 11 0 1.6 4.8 0.00 0.56 0.00 95 1013.2
20260507050533 11 107 1.6 3.2 0.00 0.56 0.00 95 1013.3
20260507050047 11 126 0.0 1.6 0.00 0.56 0.00 95 1013.1
20260507045531 11 0 0.0 0.0 0.00 1.88 0.00 96 1013.1
20260507045033 11 0 0.0 0.0 0.00 1.88 0.00 96 1013.1
20260507044541 11 0 0.0 0.0 0.00 1.88 0.00 96 1013.1
20260507044031 11 0 0.0 0.0 0.00 1.88 0.00 96 1013.2
20260507043531 11 0 0.0 0.0 0.00 1.88 0.00 95 1013.1
20260507043048 10 0 0.0 0.0 0.00 1.88 0.00 95 1013.0
20260507042535 11 0 0.0 0.0 0.00 1.88 0.00 96 1012.9
20260507042033 10 0 0.0 0.0 0.00 1.88 0.00 95 1013.0
20260507041547 10 0 0.0 0.0 0.00 1.88 0.00 95 1013.2
20260507041033 10 0 0.0 0.0 0.00 1.88 0.00 95 1012.9
20260507040534 10 0 0.0 0.0 0.00 1.88 0.00 95 1012.8
20260507040050 10 0 0.0 0.0 0.00 1.88 0.00 95 1012.8
20260507035533 10 0 0.0 0.0 0.00 4.24 0.00 95 1012.7
20260507035033 10 0 0.0 0.0 0.00 4.24 0.00 95 1012.9
20260507034607 10 0 0.0 0.0 0.00 4.24 0.00 95 1012.9
20260507034032 10 0 0.0 0.0 0.00 4.24 0.00 95 1012.9
20260507033531 10 0 0.0 0.0 0.00 4.24 0.00 94 1013.0
20260507033103 11 0 0.0 0.0 0.00 4.24 0.00 95 1012.9
20260507032534 11 0 0.0 0.0 0.00 4.24 0.00 95 1012.8
20260507032033 11 0 0.0 0.0 0.00 4.24 0.00 95 1012.9
20260507031547 11 0 0.0 0.0 0.00 4.24 0.00 95 1013.0
20260507031034 11 0 0.0 0.0 0.00 4.24 0.00 94 1012.9
20260507030536 11 0 0.0 0.0 0.00 4.24 0.00 94 1012.8
20260507030045 11 0 0.0 0.0 0.00 4.24 0.00 94 1012.8
20260507025531 11 0 0.0 0.0 0.00 6.63 0.00 94 1012.8
20260507025034 11 0 0.0 0.0 0.00 6.63 0.00 94 1012.9
20260507024553 11 0 0.0 0.0 0.00 6.63 0.00 94 1012.9
20260507024034 11 0 0.0 0.0 0.00 6.63 0.00 94 1012.9
20260507023538 11 0 0.0 0.0 0.00 6.63 0.00 94 1012.8
20260507023044 11 0 0.0 0.0 0.00 6.63 0.00 94 1012.9
20260507022531 11 0 0.0 0.0 0.00 6.63 0.00 93 1012.7
20260507022035 12 0 0.0 0.0 0.00 6.63 0.00 93 1012.8
20260507021547 12 0 0.0 0.0 0.00 6.63 0.00 94 1012.8
20260507021039 12 0 0.0 0.0 0.00 6.63 0.00 94 1012.8
20260507020534 12 0 0.0 0.0 0.00 6.63 0.00 94 1012.8
20260507020047 12 0 0.0 1.6 0.00 6.63 0.00 94 1012.8
20260507015533 12 0 0.0 1.6 0.00 6.65 0.00 94 1012.9
20260507015037 12 0 0.0 0.0 0.00 6.65 0.00 94 1012.9
20260507014542 12 0 0.0 0.0 0.00 6.65 0.00 94 1012.8
20260507014031 12 0 0.0 1.6 0.00 6.65 0.00 94 1012.7
20260507013533 12 0 0.0 1.6 0.00 6.65 0.00 94 1012.8
20260507013041 12 75 0.0 1.6 0.00 6.65 0.00 94 1012.8
20260507012534 12 0 0.0 3.2 0.00 6.65 0.00 94 1012.8
20260507012031 12 0 0.0 3.2 0.00 6.65 0.00 94 1012.9
20260507011546 12 0 0.0 0.0 0.00 6.65 0.00 94 1012.7
20260507011032 12 0 0.0 0.0 0.00 6.65 0.00 93 1012.5
20260507010533 12 0 0.0 0.0 0.00 6.65 0.00 93 1012.7
20260507010052 12 0 0.0 0.0 0.00 6.65 0.00 93 1012.9
20260507005533 12 0 0.0 0.0 0.00 7.21 0.00 93 1012.9
20260507005032 12 0 0.0 0.0 0.00 7.21 0.00 93 1012.8
20260507004542 12 0 0.0 0.0 0.00 7.21 0.00 93 1012.8
20260507004031 12 0 0.0 0.0 0.00 7.21 0.00 93 1012.8
20260507003533 12 0 0.0 0.0 0.00 7.21 0.00 93 1012.8
20260507003046 12 0 0.0 0.0 0.00 7.21 0.00 93 1012.8
20260507002531 12 0 0.0 0.0 0.00 7.21 0.00 92 1012.9
20260507002033 12 0 0.0 0.0 0.00 7.21 0.00 92 1012.8
20260507001606 12 0 0.0 1.6 0.00 7.21 0.00 92 1012.9
20260507001031 12 0 0.0 4.8 0.00 7.21 0.00 92 1012.7
20260507000531 12 94 0.0 4.8 0.00 7.21 0.00 92 1012.8
20260507000047 12 120 1.6 4.8 0.00 7.21 0.00 92 1012.9
20260506235533 12 104 1.6 6.4 0.00 8.26 0.00 92 1012.9
20260506235036 13 0 0.0 6.4 0.00 8.26 0.00 92 1012.8
20260506234555 13 146 1.6 8.0 0.00 8.26 0.00 92 1012.9
20260506234033 13 128 1.6 9.7 0.00 8.26 0.00 92 1012.8
20260506233533 13 129 3.2 9.7 0.00 8.26 0.00 92 1012.9
20260506233045 13 165 3.2 9.7 0.00 8.26 0.00 92 1012.8
20260506232533 13 149 4.8 9.7 0.00 8.26 0.00 92 1012.9
20260506232034 13 107 4.8 9.7 0.00 8.26 0.00 92 1012.9
20260506231544 13 149 3.2 9.7 0.00 8.26 0.00 92 1012.8
20260506231032 13 115 1.6 6.4 0.00 8.26 0.00 92 1012.9
20260506230531 13 113 3.2 6.4 0.00 8.26 0.00 92 1012.8
20260506230043 13 115 3.2 6.4 0.00 8.26 0.00 92 1012.7
20260506225531 13 120 1.6 4.8 0.00 9.17 0.00 92 1012.7
20260506225033 13 121 1.6 4.8 0.00 9.17 0.00 92 1012.9
20260506224603 13 106 1.6 4.8 0.00 9.17 0.00 92 1012.8
20260506224030 13 131 0.0 3.2 0.00 9.17 0.00 92 1012.9
20260506223530 13 110 0.0 3.2 0.00 9.17 0.00 92 1012.8
20260506223046 13 0 0.0 4.8 0.00 9.17 0.00 92 1013.0
20260506222533 13 0 1.6 8.0 0.00 9.17 0.00 91 1012.9
20260506222034 13 0 3.2 8.0 0.00 9.17 0.00 91 1013.0
20260506221543 13 123 3.2 8.0 0.00 9.17 0.00 92 1013.0
20260506221032 13 101 1.6 8.0 0.00 9.17 0.00 92 1012.9
20260506220531 14 95 1.6 8.0 0.00 9.17 0.00 92 1012.8
20260506215532 14 0 0.0 6.4 0.00 9.17 9.17 92 1012.9
20260506215031 14 0 1.6 6.4 0.00 9.17 9.17 92 1012.7
20260506214549 14 107 0.0 1.6 0.00 9.17 9.17 92 1012.6
20260506214033 15 0 0.0 0.0 0.00 9.17 9.17 92 1012.7
20260506213532 15 0 0.0 0.0 0.00 9.17 9.17 92 1012.6
20260506213047 15 0 0.0 0.0 0.00 9.17 9.17 92 1012.8
20260506212534 15 0 0.0 0.0 0.00 9.17 9.17 92 1012.8
20260506212033 15 0 0.0 0.0 0.00 9.17 9.17 92 1012.8
20260506211551 15 0 0.0 0.0 0.00 9.17 9.17 91 1012.7
20260506211032 15 0 0.0 0.0 0.00 9.17 9.17 91 1012.7
20260506210533 15 0 0.0 0.0 0.00 9.17 9.17 91 1012.6
20260506210047 15 0 0.0 0.0 0.00 9.17 9.17 91 1012.8
20260506205533 15 0 0.0 3.2 0.00 9.17 9.17 91 1012.7